Weather History for Shelbyville, IN

Change the Weather History Date:

Thursday, October 3, 2013

  Actual Average Record
Temperature  
Mean Temperature 76 °F 58 °F  
Max Temperature 84 °F 71 °F 84 °F (2002)
Min Temperature 68 °F 46 °F 28 °F (2004)
Degree Days  
Heating Degree Days 0 8  
Month to date heating degree days 0 22  
Since 1 July heating degree days 39 107  
Cooling Degree Days 11 1  
Month to date cooling degree days 15 3  
Year to date cooling degree days 1159 902  
Growing Degree Days 26 (Base 50)    
Moisture  
Dew Point 66 °F    
Average Humidity 71    
Maximum Humidity 90    
Minimum Humidity 51    
Precipitation  
Precipitation 0.22 in 0.12 in 0.47 in (2006)
Month to date precipitation 0.22 0.36  
Year to date precipitation 23.66 33.81  
Sea Level Pressure  
Sea Level Pressure 30.03 in    
Wind  
Wind Speed 8 mph (South)    
Max Wind Speed 17 mph    
Max Gust Speed 21 mph    
Visibility 5 miles    
Events Rain    
T = Trace of Precipitation, MM = Missing Value Source: NWS Daily Summary

Daily Weather History Graph

Daily Weather History Graph

Search for Another Location

Airport:

Trip Planner

Search our weather history database for the weather conditions in past years. The results will help you decide how hot, cold, wet, or windy it might be!

Date:

Astronomy

Oct. 03, 2013 Rise Set
Actual Time 7:41 AM EDT 7:22 PM EDT
Civil Twilight 7:14 AM EDT 7:48 PM EDT
Nautical Twilight 6:43 AM EDT 8:20 PM EDT
Astronomical Twilight 6:12 AM EDT 8:51 PM EDT
Moon 6:14 AM EDT (10/3) 6:30 PM EDT (10/3)
Length of Visible Light 12h 34m
Length of Day
11h 40m
Waning Crescent, 2% of the Moon is Illuminated
Oct 3
Waning Crescent
Oct 4
New
Oct 11
First Quarter
Oct 18
Full
Oct 26
Last Quarter

Hourly Weather History & Observations

Time (EDT) Temp. Heat Index Dew Point Humidity Pressure Visibility Wind Dir Wind Speed Gust Speed Precip Events Conditions
12:53 AM 69.1 °F - 66.0 °F 90% 30.03 in 4.0 mi SSE 4.6 mph - N/A   Partly Cloudy
1:28 AM 69.8 °F - 66.2 °F 88% 30.04 in 4.0 mi South 6.9 mph - N/A   Mostly Cloudy
1:41 AM 69.8 °F - 66.2 °F 88% 30.04 in 4.0 mi South 6.9 mph - N/A   Scattered Clouds
1:53 AM 69.1 °F - 66.9 °F 93% 30.02 in 4.0 mi SSE 4.6 mph - N/A   Partly Cloudy
2:21 AM 69.8 °F - 66.2 °F 88% 30.04 in 3.0 mi South 5.8 mph - N/A   Scattered Clouds
2:27 AM 69.8 °F - 66.2 °F 88% 30.04 in 2.5 mi South 6.9 mph - N/A   Mostly Cloudy
2:38 AM 69.8 °F - 66.2 °F 88% 30.04 in 1.0 mi South 6.9 mph - N/A   Mostly Cloudy
2:48 AM 69.8 °F - 66.2 °F 88% 30.04 in 0.8 mi South 5.8 mph - N/A   Mist
2:53 AM 69.1 °F - 66.9 °F 93% 30.02 in 0.8 mi South 5.8 mph - N/A   Mist
3:07 AM 69.8 °F - 66.2 °F 88% 30.04 in 1.0 mi South 5.8 mph - N/A   Mist
3:32 AM 69.8 °F - 66.2 °F 88% 30.03 in 2.5 mi South 4.6 mph - N/A   Overcast
3:53 AM 69.1 °F - 66.9 °F 93% 30.02 in 2.0 mi South 5.8 mph - N/A   Overcast
4:10 AM 69.8 °F - 66.2 °F 88% 30.04 in 3.0 mi South 6.9 mph - N/A   Overcast
4:53 AM 69.1 °F - 66.0 °F 90% 30.03 in 3.0 mi South 4.6 mph - N/A   Partly Cloudy
5:53 AM 69.1 °F - 66.0 °F 90% 30.04 in 4.0 mi South 6.9 mph - N/A   Partly Cloudy
6:53 AM 69.1 °F - 66.0 °F 90% 30.04 in 4.0 mi SSW 5.8 mph - N/A   Overcast
7:53 AM 69.1 °F - 66.0 °F 90% 30.05 in 4.0 mi South 5.8 mph - N/A   Mostly Cloudy
8:16 AM 69.8 °F - 66.2 °F 88% 30.06 in 3.0 mi South 8.1 mph - N/A   Overcast
8:23 AM 69.8 °F - 66.2 °F 88% 30.06 in 2.5 mi South 8.1 mph - N/A   Overcast
8:34 AM 69.8 °F - 66.2 °F 88% 30.06 in 2.5 mi South 9.2 mph - N/A   Overcast
8:53 AM 70.0 °F - 66.9 °F 90% 30.06 in 2.0 mi South 8.1 mph - N/A   Overcast
9:37 AM 69.8 °F - 66.2 °F 88% 30.08 in 0.8 mi SW 8.1 mph - 0.12 in Rain Light Rain
9:51 AM 69.8 °F - 66.2 °F 88% 30.09 in 2.0 mi SSW 6.9 mph - 0.21 in Rain Rain
9:53 AM 70.0 °F - 66.9 °F 90% 30.07 in 2.5 mi SSW 9.2 mph - 0.21 in Rain Light Rain
10:00 AM 69.8 °F - 66.2 °F 88% 30.08 in 2.5 mi SSW 6.9 mph - 0.00 in Rain Light Rain
10:17 AM 71.6 °F - 68.0 °F 88% 30.08 in 3.0 mi SSW 6.9 mph - 0.01 in Rain Light Rain
10:53 AM 72.0 °F - 68.0 °F 87% 30.06 in 4.0 mi SSW 8.1 mph - 0.01 in   Mostly Cloudy
11:53 AM 75.9 °F - 66.9 °F 74% 30.06 in 10.0 mi SSW 10.4 mph - N/A   Mostly Cloudy
12:53 PM 78.1 °F - 64.9 °F 64% 30.05 in 10.0 mi SW 12.7 mph 18.4 mph N/A   Overcast
1:53 PM 79.0 °F - 64.9 °F 62% 30.03 in 10.0 mi SSW 13.8 mph 20.7 mph N/A   Mostly Cloudy
2:53 PM 82.0 °F 83.4 °F 64.0 °F 54% 30.00 in 10.0 mi SW 10.4 mph 17.3 mph N/A   Scattered Clouds
3:53 PM 82.9 °F 84.0 °F 63.0 °F 51% 29.98 in 10.0 mi SW 13.8 mph - N/A   Partly Cloudy
4:53 PM 82.0 °F 83.4 °F 64.0 °F 54% 29.97 in 10.0 mi South 11.5 mph 18.4 mph N/A   Mostly Cloudy
5:53 PM 80.1 °F 81.7 °F 64.0 °F 58% 29.98 in 10.0 mi SSW 13.8 mph - N/A   Partly Cloudy
6:53 PM 79.0 °F - 64.9 °F 62% 29.98 in 10.0 mi South 6.9 mph - N/A   Scattered Clouds
7:53 PM 75.9 °F - 64.0 °F 67% 29.97 in 10.0 mi South 6.9 mph - N/A   Clear
8:53 PM 75.0 °F - 64.9 °F 71% 29.99 in 10.0 mi South 8.1 mph - N/A   Clear
9:53 PM 73.9 °F - 64.9 °F 73% 30.01 in 10.0 mi South 9.2 mph - N/A   Clear
10:53 PM 72.0 °F - 64.9 °F 78% 30.02 in 10.0 mi South 6.9 mph - N/A   Partly Cloudy